Погода в Сыктывкаре

Погода в Сыктывкаре : погода сейчас, прогноз погоды и архив. Всё, что Вы хотите узнать о погоде в Сыктывкаре!

Поиск расширенной информации на нашем сайте:

Другие новости

Новости СМИ2

Главная страница сайта

Новости сайта

02.10.2013

Напоминаем, что на нашем новом сайте вы можете получить высокодетализированные прогнозы погоды по пунктам России, СНГ и мира (включающие важные для авиации метеовеличины, такие как направление и скорость ветра, видимость, явления погоды, количество и форма облачности, нижняя и верхняя граница облачности), а также ознакомиться с разнообразными материалами по авиационной метеорологии и подборкой полезных ссылок на эту тему.

Сайт Метеоцентр.Азия посвящён разработке технологий оптимизации авиаметеорологического обслуживания, включая проектирование и перспективное создание нескольких автоматизированных авиаметеорологических систем:
- система выпуска высокодетальных прогностических карт явлений погоды для нижнего воздушного пространства по России и ближнему зарубежью;
- система верификации прогнозов TAF (выпускаемых синоптиками официальных АМСГ РФ и ближнего зарубежья) и AUTOTAF (выпускаемых сайтом Метеоцентр.Азия) - выявление ошибок, онлайн-сопоставление с фактической погодой METAR, автоматическое внесение коррективов в прогнозы при резком отклонении фактической погоды от прогноза, подсчёт оправдываемости прогнозов по элементам и в целом;
- система обработки, анализа и отображения авиаметеорологической информации для применения провайдерами метеорологической информации.

Рекомендуем: Реализуем кабель ааблу.

Погода в Сыктывкаре - сегодня

Время (UTC), дата Ветер
(°,м/с) 
Видим.   Явления Облачность Т
(°С)
Тd
(°С)
f(%) Тe
(°С)
Pmin
(гПа)
dP
(гПа)
Po
(мм)
O2
(г/м3)
Тmin Tmax R s Состояние
почвы
18 23.05.17 280 (З) 20000 м    10/8 330 м средняя 
[Sc|Ac trans]
+8.7 -1.7 48 +9  1005.5  -0.2  744  291           
21 23.05.17 220 (ЮЗ) 10 км    10/5 600 м средняя 
[Sc|Ac trans]
+6.6 -0.6 60 +8  1004.1  -1.4  743  292           
00 24.05.17 190 (Ю) 10 км  слаб. дождь  10/8 330 м кучево-дожд., средняя 
[Cb cap|Ac trans]
+5.7 +2.1 78 +7  1002.7  -1.4  741  292           
03 24.05.17 280 (З) 10 км  слаб. ливневой дождь  9/6 500 м кучево-дожд., средняя 
[Cb cap|Ac trans]
+5.9 +4.7 92 +6  1003.2  0.5  742  292  +4.8    0.9    влажная 
06 24.05.17 300 (СЗ) 3{11}  20000 м  в посл. час ливневой снег{дождь}  8/6 840 м кучево-дожд., средняя 
[Cb cap|Ac trans]
+4.9 +0.1 71 +4  1006.5  3.2  744  295  +3.5         
09 24.05.17 300 (СЗ) 4{11}  20000 м  {ливн. осадки}  10/10 900 м кучево-дожд. 
[Cb cap]
+4.8 -2.9 57 +3  1010  3.4  747  296           
12 24.05.17 310 (СЗ) 4-14{14}  20000 м  {ливн. осадки}  8/3 1000 м кучево-дожд., средняя 
[Cb cap|Ac As]
+5.9 -5.4 44 +4  1012.2  2.2  748  296           
15 24.05.17 310 (СЗ) 20000 м    9/0 средняя 
[Ac As]
+5.9 -5.7 43 +6  1013.7  1.4  750  296    +6.8  0.3     
18 24.05.17 240 (ЮЗ) 20000 м    8/0 средняя, верхняя 
[Ac lent|Ci fib]
+1.9 -5.2 59 +3  1014.5  0.6  750  301           
21 24.05.17 250 (З) 10 км    3/0 средняя 
[Ac lent]
+0.3 -6.1 62 +1  1015.3  0.7  751  303           
00 25.05.17 тихо ()   20000 м    3/0 средняя 
[Ac lent]
-0.2 -6 65 -0  1016.3  751  304           
03 25.05.17 тихо ()   20000 м    4/0 средняя, верхняя 
[Ac lent|Ci fib]
+5.7 -3.7 51 +6  1016.8  0.8  752  297  -0.6        влажная 
06 25.05.17 280 (З) 20000 м    8/0 средняя 
[Ac trans]
+9.7 -4.1 38 +10  1017.2  0.6  752  293           
09 25.05.17 310 (СЗ) 20000 м    4/4 1000 м 
[Cu hum]
+12.8 -3.5 32 +13  1016.2  -0.9  752  290           
12 25.05.17 190 (Ю) 20000 м    4/3 1000 м верхняя 
[Cu hum|Ci fib]
+15 -2.8 29 +16  1014.6  -1.4  751  287           
15 25.05.17 180 (Ю) 20000 м    5/0 верхняя 
[Ci fib]
+15.1 -2.7 29 +16  1012.5  -2.1  749  286    +15.9       
18 25.05.17 140 (ЮВ) 20000 м    8/0 средняя, верхняя 
[As trans|Cc]
+12.3 -2.5 36 +13  1010.9  -1.7  748  289           
21 25.05.17 140 (ЮВ) 20000 м    9/3 600 м средняя 
[Sc|As trans]
+10.2 -2.4 41 +10  1008.3  -2.7  746  290           
00 26.05.17 180 (Ю) 10 км  слаб. дождь  10/6 400 м средняя 
[Sc|As op]
+7.8 +4.7 81 +8  1004.5  -3.8  743  290           
03 26.05.17 180 (Ю) 20000 м  {ливн. осадки, дождь}  10/10 480 м кучево-дожд. 
[Cb cap]
+7.9 +7 94 +8  1000.5  -4  740  289  +6.9      мокрая 
06 26.05.17 210 (ЮЗ) 20000 м  {ливн. осадки, дождь}  9/9 900 м кучево-дожд. 
[Cb cap]
+13.3 +9.9 80 +14  998.4  -1.7  739  282           
09 26.05.17 230 (ЮЗ) 4{12}  10 км  слаб. ливневой дождь  10/8 900 м кучево-дожд., средняя 
[Cb cap|As op]
+11.6 +8.8 83 +11  999.4  0.9  739  284           
12 26.05.17 270 (З) 3{13}  10 км  слаб. ливневой дождь  9/9 720 м кучево-дожд. 
[Cb cap]
+11.7 +9.8 88 +12  1001.8  2.4  741  285           
15 26.05.17 270 (З) 2{11}  20000 м  {ливн. осадки}  8/8 1080 м 
[Cu Sc]
+15.1 +7.4 60 +16  1003.8  2.2  743  282    +15.1     
18 26.05.17 200 (Ю) 20000 м  {ливн. осадки}  6/0 средняя, верхняя 
[Ac trans|Ci fib]
+10.8 +6 72 +12  1003.4  -0.7  742  287           
Время (UTC), дата Ветер
(°,м/с) 
Видим.   Явления Облачность Т
(°С)
Тd
(°С)
f(%) Тe
(°С)
Pmin
(гПа)
dP
(гПа)
Po
(мм)
O2
(г/м3)
Тmin Tmax R s Состояние
почвы

Для получения пояснительной информации подведите курсор к названию столбца.

ПОГОДА в Сыктывкаре - архив

Всё, что Вы хотите узнать о погоде в Сыктывкаре - удобно и подробно!

Выберите нужную дату (начиная с 1 января 2015* года) и нажмите кнопку "Найти".
Будут отображены архивные сводки погоды по пункту Сыктывкар, начиная с указанной даты.


Отображать данные в формате CSV (для использования в таблицах Excel)


Внимание! Наш архив погоды предназначен исключительно для личного некоммерческого использования в познавательных целях. Если Вам необходимы официальные справки о состоянии погоды (для производственных, юридических, коммерческих и т.п. целей), обращайтесь в органы Росгидромета.

*Примечание: данная дата относится к архиву по метеостанциям СССР (Россия, СНГ, Балтия).
Архив по метеостанциям Зарубежной Европы и Азии (кроме Китая) хранится 10 дней, по другим регионам земного шара (Китай, Африка, Америка, Австралия, Океания) - 1 день.

Сыктывкар - район местоположения метеостанции


Название, широта, долгота, высота метеостанции:
Сыктывкар (город) 61.7°ш. 50.8°д. 104 м над ур. моря [Российская Федерация]

Дополнительная информация

В oтличие oт бoльшинства пoгoдных сайтoв мы публикуем пoдрoбную метеoинфoрмацию в детальнoм прoфессиoнальнoм фoрмате.

Характеристики температуры и влажнoсти вoздуха измеряются на высoте 2 м в тени вдали oт зданий и деревьев.
Скoрoсть ветра измеряется на высoте 10 м (на урoвне рoста челoвека скoрoсть ветра ниже в 1.5-2 раза). Если метеoстанция нахoдится в гoрoде или в лесу, тo скoрoсть ветра занижена на 2-4 м/с пo сравнению с oткрытым местoм. Скoрoсть ветра над акватoриями крупных рек и oзёр, а также на вершинах хoлмoв на 2-5 м/с выше, чем в oбычных услoвиях.
Атмoсфернoе давление в разных тoчках местнoсти мoжет значительнo oтличаться oт давления на метеoстанции, в зависимoсти oт услoвий рельефа (при пoдъёме на 10 м давление пoнижается примернo на 1 мм рт.ст.).